Time,TemperatureF,DewpointF,PressureIn,WindDirection,WindDirectionDegrees,WindSpeedMPH,WindSpeedGustMPH,Humidity,HourlyPrecipIn,Conditions,Clouds,dailyrainin,SoftwareType,DateUTC
2013-02-10 00:00:00,19.9,9.7,31.01,SW,219,0.0,0.0,64,0.00,CLR,OVC,0.00,WeatherDisplay:10.37,2013-02-10 05:00:00,
2013-02-10 00:05:00,19.9,9.7,31.01,SSW,199,0.0,0.0,64,0.00,CLR,OVC,0.00,WeatherDisplay:10.37,2013-02-10 05:05:00,
2013-02-10 00:10:00,19.9,9.7,31.01,WSW,252,0.0,0.0,64,0.00,CLR,OVC,0.00,WeatherDisplay:10.37,2013-02-10 05:10:00,
2013-02-10 00:15:00,19.9,9.7,31.01,SSW,206,0.0,0.0,64,0.00,CLR,OVC,0.00,WeatherDisplay:10.37,2013-02-10 05:15:00,
2013-02-10 00:20:00,19.9,10.1,31.01,SSW,202,0.0,0.0,65,0.00,CLR,OVC,0.00,WeatherDisplay:10.37,2013-02-10 05:20:00,
2013-02-10 00:25:00,19.9,10.1,31.01,SW,220,0.0,0.0,65,0.00,CLR,OVC,0.00,WeatherDisplay:10.37,2013-02-10 05:25:00,
2013-02-10 00:30:00,19.9,10.1,31.01,SW,236,0.0,0.0,65,0.00,CLR,OVC,0.00,WeatherDisplay:10.37,2013-02-10 05:30:00,
2013-02-10 00:35:00,19.9,10.1,31.01,West,261,0.0,0.0,65,0.00,CLR,OVC,0.00,WeatherDisplay:10.37,2013-02-10 05:35:00,
2013-02-10 00:40:00,19.9,10.1,31.01,South,183,0.0,0.0,65,0.00,CLR,OVC,0.00,WeatherDisplay:10.37,2013-02-10 05:40:00,
2013-02-10 00:45:00,19.9,10.4,31.01,SSW,209,0.0,0.0,66,0.00,CLR,OVC,0.00,WeatherDisplay:10.37,2013-02-10 05:45:00,
2013-02-10 00:50:00,19.9,10.4,31.01,SW,221,0.0,0.0,66,0.00,CLR,OVC,0.00,WeatherDisplay:10.37,2013-02-10 05:50:00,
2013-02-10 00:55:00,19.9,10.4,31.01,West,259,0.0,0.0,66,0.00,CLR,OVC,0.00,WeatherDisplay:10.37,2013-02-10 05:55:00,
2013-02-10 01:00:00,19.9,10.7,31.01,West,259,0.0,0.0,67,0.00,CLR,OVC,0.00,WeatherDisplay:10.37,2013-02-10 06:00:00,
2013-02-10 01:05:00,19.9,10.4,31.01,West,259,0.0,0.0,66,0.00,CLR,OVC,0.00,WeatherDisplay:10.37,2013-02-10 06:05:00,
2013-02-10 01:10:00,19.9,10.4,31.01,WSW,256,0.0,0.0,66,0.00,CLR,OVC,0.00,WeatherDisplay:10.37,2013-02-10 06:10:00,
2013-02-10 01:15:00,19.9,10.4,31.01,WSW,256,0.0,0.0,66,0.00,CLR,OVC,0.00,WeatherDisplay:10.37,2013-02-10 06:15:00,
2013-02-10 01:20:00,19.9,10.4,31.01,WSW,242,0.0,0.0,66,0.00,CLR,OVC,0.00,WeatherDisplay:10.37,2013-02-10 06:20:00,
2013-02-10 01:25:00,19.9,10.4,31.01,WSW,242,0.0,0.0,66,0.00,CLR,OVC,0.00,WeatherDisplay:10.37,2013-02-10 06:25:00,
2013-02-10 01:30:00,19.9,10.4,31.01,WSW,242,0.0,0.0,66,0.00,CLR,OVC,0.00,WeatherDisplay:10.37,2013-02-10 06:30:00,
2013-02-10 01:35:00,19.9,10.4,31.01,WSW,242,0.0,0.0,66,0.00,CLR,OVC,0.00,WeatherDisplay:10.37,2013-02-10 06:35:00,
2013-02-10 01:40:00,19.9,10.4,31.01,WSW,242,0.0,0.0,66,0.00,CLR,OVC,0.00,WeatherDisplay:10.37,2013-02-10 06:40:00,
2013-02-10 01:45:00,19.9,10.4,31.01,WSW,242,0.0,0.0,66,0.00,CLR,OVC,0.00,WeatherDisplay:10.37,2013-02-10 06:45:00,
2013-02-10 01:50:00,19.9,10.4,31.01,WSW,242,0.0,0.0,66,0.00,CLR,OVC,0.00,WeatherDisplay:10.37,2013-02-10 06:50:00,
2013-02-10 01:55:00,19.9,10.4,31.01,WSW,242,0.0,0.0,66,0.00,CLR,OVC,0.00,WeatherDisplay:10.37,2013-02-10 06:55:00,
2013-02-10 02:00:00,19.9,10.1,31.01,WSW,242,0.0,0.0,65,0.00,CLR,OVC,0.00,WeatherDisplay:10.37,2013-02-10 07:00:00,
2013-02-10 02:05:00,19.9,10.1,31.01,WSW,242,0.0,0.0,65,0.00,CLR,OVC,0.00,WeatherDisplay:10.37,2013-02-10 07:05:00,
2013-02-10 02:10:00,19.9,10.1,31.01,WSW,242,0.0,0.0,65,0.00,CLR,OVC,0.00,WeatherDisplay:10.37,2013-02-10 07:10:00,
2013-02-10 02:15:00,19.9,10.1,31.01,WSW,242,0.0,0.0,65,0.00,CLR,OVC,0.00,WeatherDisplay:10.37,2013-02-10 07:15:00,
2013-02-10 02:20:00,19.9,10.1,31.01,WSW,242,0.0,0.0,65,0.00,CLR,OVC,0.00,WeatherDisplay:10.37,2013-02-10 07:20:00,
2013-02-10 02:25:00,19.9,10.1,31.01,WSW,242,0.0,0.0,65,0.00,CLR,OVC,0.00,WeatherDisplay:10.37,2013-02-10 07:25:00,
2013-02-10 02:30:00,19.9,10.1,31.01,WSW,242,0.0,0.0,65,0.00,CLR,OVC,0.00,WeatherDisplay:10.37,2013-02-10 07:30:00,
2013-02-10 02:35:00,19.9,10.1,31.01,WSW,242,0.0,0.0,65,0.00,CLR,OVC,0.00,WeatherDisplay:10.37,2013-02-10 07:35:00,
2013-02-10 02:40:00,19.9,10.1,31.01,WSW,242,0.0,0.0,65,0.00,CLR,OVC,0.00,WeatherDisplay:10.37,2013-02-10 07:40:00,
2013-02-10 02:45:00,19.9,10.1,31.01,WSW,242,0.0,0.0,65,0.00,CLR,OVC,0.00,WeatherDisplay:10.37,2013-02-10 07:45:00,
2013-02-10 02:50:00,19.9,10.1,31.01,WSW,242,0.0,0.0,65,0.00,CLR,OVC,0.00,WeatherDisplay:10.37,2013-02-10 07:50:00,
2013-02-10 02:55:00,19.9,10.1,31.01,WSW,242,0.0,0.0,65,0.00,CLR,OVC,0.00,WeatherDisplay:10.37,2013-02-10 07:55:00,
2013-02-10 03:00:00,19.9,10.1,31.01,WSW,242,0.0,0.0,65,0.00,CLR,OVC,0.00,WeatherDisplay:10.37,2013-02-10 08:00:00,
2013-02-10 03:05:00,19.9,10.1,31.01,WSW,242,0.0,0.0,65,0.00,CLR,OVC,0.00,WeatherDisplay:10.37,2013-02-10 08:05:00,
2013-02-10 03:10:00,19.9,10.1,31.01,WSW,242,0.0,0.0,65,0.00,CLR,OVC,0.00,WeatherDisplay:10.37,2013-02-10 08:10:00,
2013-02-10 03:15:00,19.9,10.1,31.01,WSW,242,0.0,0.0,65,0.00,CLR,OVC,0.00,WeatherDisplay:10.37,2013-02-10 08:15:00,
2013-02-10 03:20:00,19.9,10.1,31.01,WSW,242,0.0,0.0,65,0.00,CLR,OVC,0.00,WeatherDisplay:10.37,2013-02-10 08:20:00,
2013-02-10 03:25:00,19.9,10.1,31.01,WSW,242,0.0,0.0,65,0.00,CLR,OVC,0.00,WeatherDisplay:10.37,2013-02-10 08:25:00,
2013-02-10 03:30:00,19.9,10.1,31.01,WSW,242,0.0,0.0,65,0.00,CLR,OVC,0.00,WeatherDisplay:10.37,2013-02-10 08:30:00,
2013-02-10 03:35:00,19.8,9.9,31.01,WSW,242,0.0,0.0,65,0.00,CLR,OVC,0.00,WeatherDisplay:10.37,2013-02-10 08:35:00,
2013-02-10 03:40:00,19.8,9.9,31.01,WSW,242,0.0,0.0,65,0.00,CLR,OVC,0.00,WeatherDisplay:10.37,2013-02-10 08:40:00,
2013-02-10 03:45:00,19.9,10.1,31.01,WSW,242,0.0,0.0,65,0.00,CLR,OVC,0.00,WeatherDisplay:10.37,2013-02-10 08:45:00,
2013-02-10 03:50:00,19.9,10.1,31.01,WSW,242,0.0,0.0,65,0.00,CLR,OVC,0.00,WeatherDisplay:10.37,2013-02-10 08:50:00,
2013-02-10 03:55:00,19.9,10.1,31.01,WSW,242,0.0,0.0,65,0.00,CLR,OVC,0.00,WeatherDisplay:10.37,2013-02-10 08:55:00,
2013-02-10 04:00:00,19.9,10.1,31.01,WSW,242,0.0,0.0,65,0.00,CLR,OVC,0.00,WeatherDisplay:10.37,2013-02-10 09:00:00,
2013-02-10 04:05:00,19.9,10.1,31.01,WSW,242,0.0,0.0,65,0.00,CLR,OVC,0.00,WeatherDisplay:10.37,2013-02-10 09:05:00,
2013-02-10 04:10:00,19.9,10.1,31.01,WSW,242,0.0,0.0,65,0.00,CLR,OVC,0.00,WeatherDisplay:10.37,2013-02-10 09:10:00,
2013-02-10 04:15:00,19.9,10.1,31.01,WSW,242,0.0,0.0,65,0.00,CLR,OVC,0.00,WeatherDisplay:10.37,2013-02-10 09:15:00,
2013-02-10 04:20:00,20.1,10.6,31.01,WSW,242,0.0,0.0,66,0.00,CLR,OVC,0.00,WeatherDisplay:10.37,2013-02-10 09:20:00,
2013-02-10 04:25:00,20.1,10.9,31.01,WSW,242,0.0,0.0,67,0.00,CLR,OVC,0.00,WeatherDisplay:10.37,2013-02-10 09:25:00,
2013-02-10 04:30:00,20.1,10.9,31.01,WSW,242,0.0,0.0,67,0.00,CLR,OVC,0.00,WeatherDisplay:10.37,2013-02-10 09:30:00,
2013-02-10 04:35:00,20.1,10.9,31.01,WSW,242,0.0,0.0,67,0.00,CLR,OVC,0.00,WeatherDisplay:10.37,2013-02-10 09:35:00,
2013-02-10 04:40:00,20.1,10.9,31.01,WSW,242,0.0,0.0,67,0.00,CLR,OVC,0.00,WeatherDisplay:10.37,2013-02-10 09:40:00,
2013-02-10 04:45:00,20.3,11.1,31.01,WSW,242,0.0,0.0,67,0.00,CLR,OVC,0.00,WeatherDisplay:10.37,2013-02-10 09:45:00,
2013-02-10 04:50:00,20.3,11.4,31.01,WSW,242,0.0,0.0,68,0.00,CLR,OVC,0.00,WeatherDisplay:10.37,2013-02-10 09:50:00,
2013-02-10 04:55:00,20.5,11.9,31.01,South,191,0.0,0.0,69,0.00,CLR,OVC,0.00,WeatherDisplay:10.37,2013-02-10 09:55:00,
2013-02-10 05:00:00,20.7,12.7,31.01,South,170,0.0,0.0,71,0.00,CLR,OVC,0.00,WeatherDisplay:10.37,2013-02-10 10:00:00,
2013-02-10 05:05:00,20.7,12.7,31.01,South,170,0.0,0.0,71,0.00,CLR,OVC,0.00,WeatherDisplay:10.37,2013-02-10 10:05:00,
2013-02-10 05:10:00,20.7,12.7,31.01,South,170,0.0,0.0,71,0.00,CLR,OVC,0.00,WeatherDisplay:10.37,2013-02-10 10:10:00,
2013-02-10 05:15:00,20.7,12.7,31.01,South,170,0.0,0.0,71,0.00,CLR,OVC,0.00,WeatherDisplay:10.37,2013-02-10 10:15:00,
2013-02-10 05:20:00,20.7,12.7,31.01,South,180,0.0,0.0,71,0.00,CLR,OVC,0.00,WeatherDisplay:10.37,2013-02-10 10:20:00,
2013-02-10 05:25:00,20.7,12.7,31.01,South,178,0.0,0.0,71,0.00,CLR,OVC,0.00,WeatherDisplay:10.37,2013-02-10 10:25:00,
2013-02-10 05:30:00,20.8,13.2,31.01,SW,218,0.0,0.0,72,0.00,CLR,OVC,0.00,WeatherDisplay:10.37,2013-02-10 10:30:00,
2013-02-10 05:35:00,21.0,13.4,31.01,SSW,203,0.0,0.0,72,0.00,CLR,OVC,0.00,WeatherDisplay:10.37,2013-02-10 10:35:00,
2013-02-10 05:40:00,21.0,13.4,31.01,SSW,204,0.0,0.0,72,0.00,CLR,OVC,0.00,WeatherDisplay:10.37,2013-02-10 10:40:00,
2013-02-10 05:45:00,21.0,13.4,31.01,SSW,204,0.0,0.0,72,0.00,CLR,OVC,0.00,WeatherDisplay:10.37,2013-02-10 10:45:00,
2013-02-10 05:50:00,21.0,13.7,31.01,SSW,204,0.0,0.0,73,0.00,CLR,OVC,0.00,WeatherDisplay:10.37,2013-02-10 10:50:00,
2013-02-10 05:55:00,21.2,13.9,31.01,SSW,204,0.0,0.0,73,0.00,CLR,OVC,0.00,WeatherDisplay:10.37,2013-02-10 10:55:00,
2013-02-10 06:00:00,21.0,14.0,31.01,SSW,204,0.0,0.0,74,0.00,CLR,OVC,0.00,WeatherDisplay:10.37,2013-02-10 11:00:00,
2013-02-10 06:05:00,21.0,14.0,31.01,SSW,204,0.0,0.0,74,0.00,CLR,OVC,0.00,WeatherDisplay:10.37,2013-02-10 11:05:00,
2013-02-10 06:10:00,21.2,14.2,31.01,SSW,204,0.0,0.0,74,0.00,CLR,OVC,0.00,WeatherDisplay:10.37,2013-02-10 11:10:00,
2013-02-10 06:15:00,21.2,14.2,31.01,SSW,204,0.0,0.0,74,0.00,CLR,OVC,0.00,WeatherDisplay:10.37,2013-02-10 11:15:00,
2013-02-10 06:20:00,21.0,14.0,31.01,SSW,204,0.0,0.0,74,0.00,CLR,OVC,0.00,WeatherDisplay:10.37,2013-02-10 11:20:00,
2013-02-10 06:25:00,21.2,14.2,31.01,SSW,204,0.0,0.0,74,0.00,CLR,OVC,0.00,WeatherDisplay:10.37,2013-02-10 11:25:00,
2013-02-10 06:30:00,21.2,14.2,31.01,SSW,204,0.0,0.0,74,0.00,CLR,OVC,0.00,WeatherDisplay:10.37,2013-02-10 11:30:00,
2013-02-10 06:35:00,21.2,14.2,31.01,SSW,192,0.0,0.0,74,0.00,CLR,OVC,0.00,WeatherDisplay:10.37,2013-02-10 11:35:00,
2013-02-10 06:40:00,21.2,14.2,31.01,South,190,0.0,0.0,74,0.00,CLR,OVC,0.00,WeatherDisplay:10.37,2013-02-10 11:40:00,
2013-02-10 06:45:00,21.0,14.0,31.01,South,189,0.0,0.0,74,0.00,CLR,OVC,0.00,WeatherDisplay:10.37,2013-02-10 11:45:00,
2013-02-10 06:50:00,21.0,14.0,31.01,SSE,165,0.0,0.0,74,0.00,CLR,OVC,0.00,WeatherDisplay:10.37,2013-02-10 11:50:00,
2013-02-10 06:55:00,21.0,14.0,31.01,SSE,165,0.0,0.0,74,0.00,CLR,OVC,0.00,WeatherDisplay:10.37,2013-02-10 11:55:00,
2013-02-10 07:00:00,21.0,13.7,31.01,SSE,165,0.0,0.0,73,0.00,CLR,OVC,0.00,WeatherDisplay:10.37,2013-02-10 12:00:00,
2013-02-10 07:05:00,21.0,13.7,31.01,SSE,165,0.0,0.0,73,0.00,CLR,OVC,0.00,WeatherDisplay:10.37,2013-02-10 12:05:00,
2013-02-10 07:10:00,21.0,14.0,31.01,SSE,165,0.0,0.0,74,0.00,CLR,OVC,0.00,WeatherDisplay:10.37,2013-02-10 12:10:00,
2013-02-10 07:15:00,21.0,13.7,31.01,SSE,165,0.0,0.0,73,0.00,CLR,OVC,0.00,WeatherDisplay:10.37,2013-02-10 12:15:00,
2013-02-10 07:20:00,21.0,13.7,31.01,SSE,150,0.0,0.0,73,0.00,CLR,OVC,0.00,WeatherDisplay:10.37,2013-02-10 12:20:00,
2013-02-10 07:25:00,21.0,13.7,31.01,SSE,150,0.0,0.0,73,0.00,CLR,OVC,0.00,WeatherDisplay:10.37,2013-02-10 12:25:00,
2013-02-10 07:30:00,21.0,13.7,31.01,SE,126,0.0,0.0,73,0.00,CLR,OVC,0.00,WeatherDisplay:10.37,2013-02-10 12:30:00,
2013-02-10 07:35:00,21.0,13.7,31.01,South,170,0.0,0.0,73,0.00,CLR,OVC,0.00,WeatherDisplay:10.37,2013-02-10 12:35:00,
2013-02-10 07:40:00,21.0,14.0,31.01,SE,145,0.0,0.0,74,0.00,CLR,OVC,0.00,WeatherDisplay:10.37,2013-02-10 12:40:00,
2013-02-10 07:45:00,21.0,14.0,31.01,East,91,0.0,0.0,74,0.00,CLR,OVC,0.00,WeatherDisplay:10.37,2013-02-10 12:45:00,
2013-02-10 07:50:00,21.0,14.0,31.01,SSE,165,0.0,0.0,74,0.00,CLR,OVC,0.00,WeatherDisplay:10.37,2013-02-10 12:50:00,
2013-02-10 07:55:00,21.0,14.0,31.01,SE,131,0.0,0.0,74,0.00,CLR,OVC,0.00,WeatherDisplay:10.37,2013-02-10 12:55:00,
2013-02-10 08:00:00,21.0,14.0,31.01,SSE,168,0.0,0.0,74,0.00,CLR,OVC,0.00,WeatherDisplay:10.37,2013-02-10 13:00:00,
2013-02-10 08:05:00,21.2,14.2,31.01,SSE,167,0.0,0.0,74,0.00,CLR,OVC,0.00,WeatherDisplay:10.37,2013-02-10 13:05:00,
2013-02-10 08:10:00,21.2,14.2,31.01,SE,143,0.0,0.0,74,0.00,CLR,OVC,0.00,WeatherDisplay:10.37,2013-02-10 13:10:00,
2013-02-10 08:15:00,21.4,14.4,31.01,SSE,164,0.0,0.0,74,0.00,CLR,OVC,0.00,WeatherDisplay:10.37,2013-02-10 13:15:00,
2013-02-10 08:20:00,21.4,14.4,31.01,SSE,168,0.0,0.0,74,0.00,CLR,OVC,0.00,WeatherDisplay:10.37,2013-02-10 13:20:00,
2013-02-10 08:25:00,21.4,14.4,31.01,South,177,0.0,0.0,74,0.00,CLR,OVC,0.00,WeatherDisplay:10.37,2013-02-10 13:25:00,
2013-02-10 08:30:00,21.4,14.4,31.01,ESE,106,0.0,0.0,74,0.00,CLR,OVC,0.00,WeatherDisplay:10.37,2013-02-10 13:30:00,
2013-02-10 08:35:00,21.6,14.6,31.01,East,90,0.0,0.0,74,0.00,CLR,OVC,0.00,WeatherDisplay:10.37,2013-02-10 13:35:00,
2013-02-10 08:40:00,21.6,14.6,31.01,East,90,0.0,0.0,74,0.00,CLR,OVC,0.00,WeatherDisplay:10.37,2013-02-10 13:40:00,
2013-02-10 08:45:00,21.7,14.7,31.01,East,90,0.0,0.0,74,0.00,CLR,OVC,0.00,WeatherDisplay:10.37,2013-02-10 13:45:00,
2013-02-10 08:50:00,21.9,14.9,31.01,SSE,166,0.0,0.0,74,0.00,CLR,OVC,0.00,WeatherDisplay:10.37,2013-02-10 13:50:00,
2013-02-10 08:55:00,21.9,14.6,31.01,SSE,166,0.0,0.0,73,0.00,CLR,OVC,0.00,WeatherDisplay:10.37,2013-02-10 13:55:00,
2013-02-10 09:00:00,21.9,14.6,31.01,SSE,167,0.0,0.0,73,0.00,CLR,OVC,0.00,WeatherDisplay:10.37,2013-02-10 14:00:00,
2013-02-10 09:05:00,21.9,14.6,31.01,SSE,166,0.0,0.0,73,0.00,CLR,OVC,0.00,WeatherDisplay:10.37,2013-02-10 14:05:00,
2013-02-10 09:10:00,21.9,14.3,31.01,SSE,166,0.0,0.0,72,0.00,CLR,OVC,0.00,WeatherDisplay:10.37,2013-02-10 14:10:00,
2013-02-10 09:15:00,21.9,14.3,31.01,SE,125,0.0,0.0,72,0.00,CLR,OVC,0.00,WeatherDisplay:10.37,2013-02-10 14:15:00,
2013-02-10 09:20:00,22.1,14.8,31.01,East,89,0.0,0.0,73,0.00,CLR,OVC,0.00,WeatherDisplay:10.37,2013-02-10 14:20:00,
2013-02-10 09:25:00,22.3,14.6,31.01,East,80,0.0,0.0,72,0.00,CLR,OVC,0.00,WeatherDisplay:10.37,2013-02-10 14:25:00,
2013-02-10 09:30:00,22.5,14.8,31.01,ESE,112,0.0,0.0,72,0.00,CLR,OVC,0.00,WeatherDisplay:10.37,2013-02-10 14:30:00,
2013-02-10 09:35:00,22.5,14.5,31.01,ESE,112,0.0,0.0,71,0.00,CLR,OVC,0.00,WeatherDisplay:10.37,2013-02-10 14:35:00,
2013-02-10 09:40:00,22.5,14.5,31.01,SE,129,0.0,0.0,71,0.00,CLR,OVC,0.00,WeatherDisplay:10.37,2013-02-10 14:40:00,
2013-02-10 09:45:00,22.6,14.3,31.01,East,89,0.0,0.0,70,0.00,CLR,OVC,0.00,WeatherDisplay:10.37,2013-02-10 14:45:00,
2013-02-10 09:50:00,22.6,14.3,31.01,South,179,0.0,0.0,70,0.00,CLR,OVC,0.00,WeatherDisplay:10.37,2013-02-10 14:50:00,
2013-02-10 09:55:00,22.8,14.5,31.01,ESE,107,0.0,0.0,70,0.00,CLR,OVC,0.00,WeatherDisplay:10.37,2013-02-10 14:55:00,
2013-02-10 10:00:00,22.8,14.5,31.01,East,83,0.0,0.0,70,0.00,CLR,OVC,0.00,WeatherDisplay:10.37,2013-02-10 15:00:00,
2013-02-10 10:05:00,23.0,14.7,31.01,East,93,0.0,0.0,70,0.00,CLR,OVC,0.00,WeatherDisplay:10.37,2013-02-10 15:05:00,
2013-02-10 10:10:00,23.2,14.8,31.01,East,95,0.0,0.0,70,0.00,CLR,OVC,0.00,WeatherDisplay:10.37,2013-02-10 15:10:00,
2013-02-10 10:15:00,23.4,15.0,31.01,East,95,0.0,0.0,70,0.00,CLR,OVC,0.00,WeatherDisplay:10.37,2013-02-10 15:15:00,
2013-02-10 10:20:00,23.4,14.7,31.01,East,100,0.0,0.0,69,0.00,CLR,OVC,0.00,WeatherDisplay:10.37,2013-02-10 15:20:00,
2013-02-10 10:25:00,23.2,14.5,31.01,East,100,0.0,0.0,69,0.00,CLR,OVC,0.00,WeatherDisplay:10.37,2013-02-10 15:25:00,
2013-02-10 10:30:00,23.4,15.0,31.01,ESE,109,0.0,0.0,70,0.00,CLR,OVC,0.00,WeatherDisplay:10.37,2013-02-10 15:30:00,
2013-02-10 10:35:00,23.5,15.8,31.01,ENE,64,0.0,0.0,72,0.00,CLR,OVC,0.00,WeatherDisplay:10.37,2013-02-10 15:35:00,
2013-02-10 10:40:00,23.5,15.8,31.01,ESE,113,0.0,0.0,72,0.00,CLR,OVC,0.00,WeatherDisplay:10.37,2013-02-10 15:40:00,
2013-02-10 10:45:00,24.1,16.7,31.01,East,97,0.0,0.0,73,0.00,CLR,OVC,0.00,WeatherDisplay:10.37,2013-02-10 15:45:00,
2013-02-10 10:50:00,24.3,16.8,31.01,SE,132,0.0,0.0,73,0.00,CLR,OVC,0.00,WeatherDisplay:10.37,2013-02-10 15:50:00,
2013-02-10 10:55:00,24.6,17.5,31.01,ESE,117,0.0,0.0,74,0.00,CLR,OVC,0.00,WeatherDisplay:10.37,2013-02-10 15:55:00,
2013-02-10 11:00:00,24.8,18.0,31.01,SE,124,0.0,0.0,75,0.00,CLR,OVC,0.00,WeatherDisplay:10.37,2013-02-10 16:00:00,
2013-02-10 11:05:00,25.0,18.2,31.01,ESE,111,0.0,0.0,75,0.00,CLR,OVC,0.00,WeatherDisplay:10.37,2013-02-10 16:05:00,
2013-02-10 11:10:00,25.2,18.3,31.01,East,87,0.0,0.0,75,0.00,CLR,OVC,0.00,WeatherDisplay:10.37,2013-02-10 16:10:00,
2013-02-10 11:15:00,25.3,18.8,31.01,East,99,0.0,0.0,76,0.00,CLR,OVC,0.00,WeatherDisplay:10.37,2013-02-10 16:15:00,
2013-02-10 11:20:00,25.5,19.0,31.01,SE,137,0.0,0.0,76,0.00,CLR,OVC,0.00,WeatherDisplay:10.37,2013-02-10 16:20:00,
2013-02-10 11:25:00,25.9,20.0,31.01,SSE,150,0.0,0.0,78,0.00,CLR,OVC,0.00,WeatherDisplay:10.37,2013-02-10 16:25:00,
2013-02-10 11:30:00,26.2,20.6,31.01,ESE,112,0.0,0.0,79,0.00,CLR,OVC,0.00,WeatherDisplay:10.37,2013-02-10 16:30:00,
2013-02-10 11:35:00,26.6,21.0,31.01,SSE,147,0.0,0.0,79,0.00,CLR,OVC,0.00,WeatherDisplay:10.37,2013-02-10 16:35:00,
2013-02-10 11:40:00,27.0,21.6,31.01,ESE,122,0.0,0.0,80,0.00,CLR,OVC,0.00,WeatherDisplay:10.37,2013-02-10 16:40:00,
2013-02-10 11:45:00,27.1,21.8,31.01,SSE,162,0.0,0.0,80,0.00,CLR,OVC,0.00,WeatherDisplay:10.37,2013-02-10 16:45:00,
2013-02-10 11:50:00,27.5,22.4,31.01,SE,126,0.0,0.0,81,0.00,CLR,OVC,0.00,WeatherDisplay:10.37,2013-02-10 16:50:00,
2013-02-10 11:55:00,27.9,23.1,31.01,SSE,156,0.0,0.0,82,0.00,CLR,OVC,0.00,WeatherDisplay:10.37,2013-02-10 16:55:00,
2013-02-10 12:00:00,28.2,23.7,31.01,South,180,0.0,0.0,83,0.00,CLR,OVC,0.00,WeatherDisplay:10.37,2013-02-10 17:00:00,
2013-02-10 12:05:00,28.4,23.9,31.01,SSE,148,0.0,0.0,83,0.00,CLR,OVC,0.00,WeatherDisplay:10.37,2013-02-10 17:05:00,
2013-02-10 12:10:00,28.6,24.1,31.01,SE,140,0.0,0.0,83,0.00,CLR,OVC,0.00,WeatherDisplay:10.37,2013-02-10 17:10:00,
2013-02-10 12:15:00,28.4,23.9,31.01,SSE,158,0.0,0.0,83,0.00,CLR,OVC,0.00,WeatherDisplay:10.37,2013-02-10 17:15:00,
2013-02-10 12:20:00,28.6,24.4,31.01,SE,126,0.0,0.0,84,0.00,CLR,OVC,0.00,WeatherDisplay:10.37,2013-02-10 17:20:00,
2013-02-10 12:25:00,28.6,24.4,31.01,South,178,0.0,0.0,84,0.00,CLR,OVC,0.00,WeatherDisplay:10.37,2013-02-10 17:25:00,
2013-02-10 12:30:00,28.8,24.5,31.01,South,183,0.0,0.0,84,0.00,CLR,OVC,0.00,WeatherDisplay:10.37,2013-02-10 17:30:00,
2013-02-10 12:35:00,28.8,24.5,31.01,SSE,168,0.0,0.0,84,0.00,CLR,OVC,0.00,WeatherDisplay:10.37,2013-02-10 17:35:00,
2013-02-10 12:40:00,28.6,24.4,31.01,SE,140,0.0,0.0,84,0.00,CLR,OVC,0.00,WeatherDisplay:10.37,2013-02-10 17:40:00,
2013-02-10 12:45:00,28.8,24.5,31.01,SE,133,0.0,0.0,84,0.00,CLR,OVC,0.00,WeatherDisplay:10.37,2013-02-10 17:45:00,
2013-02-10 12:50:00,28.6,24.4,31.01,SSE,159,0.0,0.0,84,0.00,CLR,OVC,0.00,WeatherDisplay:10.37,2013-02-10 17:50:00,
2013-02-10 12:55:00,28.9,24.7,31.01,South,172,0.0,0.0,84,0.00,CLR,OVC,0.00,WeatherDisplay:10.37,2013-02-10 17:55:00,
2013-02-10 13:00:00,28.8,24.5,31.01,ESE,122,0.0,0.0,84,0.00,CLR,OVC,0.00,WeatherDisplay:10.37,2013-02-10 18:00:00,
2013-02-10 13:05:00,28.9,24.7,31.01,SSE,162,0.0,0.0,84,0.00,CLR,OVC,0.00,WeatherDisplay:10.37,2013-02-10 18:05:00,
2013-02-10 13:10:00,29.1,24.9,31.01,SSE,163,0.0,0.0,84,0.00,CLR,OVC,0.00,WeatherDisplay:10.37,2013-02-10 18:10:00,
2013-02-10 13:15:00,29.1,24.9,31.01,South,169,0.0,0.0,84,0.00,CLR,OVC,0.00,WeatherDisplay:10.37,2013-02-10 18:15:00,
2013-02-10 13:20:00,29.3,24.8,31.01,East,99,0.0,0.0,83,0.00,CLR,OVC,0.00,WeatherDisplay:10.37,2013-02-10 18:20:00,
2013-02-10 13:25:00,29.3,24.8,31.01,ESE,116,0.0,0.0,83,0.00,CLR,OVC,0.00,WeatherDisplay:10.37,2013-02-10 18:25:00,
2013-02-10 13:30:00,29.1,24.6,31.01,SSE,152,0.0,0.0,83,0.00,CLR,OVC,0.00,WeatherDisplay:10.37,2013-02-10 18:30:00,
2013-02-10 13:35:00,29.3,24.8,31.01,ESE,117,0.0,0.0,83,0.00,CLR,OVC,0.00,WeatherDisplay:10.37,2013-02-10 18:35:00,
2013-02-10 13:40:00,29.3,24.8,31.01,ENE,78,0.0,0.0,83,0.00,CLR,OVC,0.00,WeatherDisplay:10.37,2013-02-10 18:40:00,
2013-02-10 13:45:00,29.3,24.8,31.01,SSE,153,0.0,0.0,83,0.00,CLR,OVC,0.00,WeatherDisplay:10.37,2013-02-10 18:45:00,
2013-02-10 14:04:00,31.3,26.7,31.01,North,0,0.0,0.0,83,0.00,CLR,OVC,0.00,WeatherDisplay:10.37,2013-02-10 19:04:00,
2013-02-10 14:09:00,29.7,25.1,28.23,SSE,168,0.0,0.0,83,0.00,CLR,OVC,0.00,WeatherDisplay:10.37,2013-02-10 19:09:00,
2013-02-10 14:14:00,29.8,25.3,28.23,ESE,108,0.0,0.0,83,0.00,CLR,OVC,0.00,WeatherDisplay:10.37,2013-02-10 19:14:00,
2013-02-10 14:19:00,29.8,25.3,28.23,SSE,156,0.0,0.0,83,0.00,CLR,OVC,0.00,WeatherDisplay:10.37,2013-02-10 19:19:00,
2013-02-10 14:29:00,31.8,26.7,28.23,East,99,0.0,0.0,81,0.00,CLR,OVC,0.00,WeatherDisplay:10.37,2013-02-10 19:29:00,
2013-02-10 14:34:00,30.2,25.1,28.20,ENE,57,0.0,0.0,81,0.00,CLR,OVC,0.00,WeatherDisplay:10.37,2013-02-10 19:34:00,
2013-02-10 14:39:00,30.2,24.8,28.20,ESE,116,0.0,0.0,80,0.00,CLR,OVC,0.00,WeatherDisplay:10.37,2013-02-10 19:39:00,
2013-02-10 14:44:00,30.2,24.5,28.20,ESE,120,0.0,0.0,79,0.00,CLR,OVC,0.00,WeatherDisplay:10.37,2013-02-10 19:44:00,
2013-02-10 14:49:00,30.4,24.6,28.20,ENE,59,0.0,0.0,79,0.00,CLR,OVC,0.00,WeatherDisplay:10.37,2013-02-10 19:49:00,
2013-02-10 14:54:00,30.4,24.6,28.20,ESE,119,0.0,0.0,79,0.00,CLR,OVC,0.00,WeatherDisplay:10.37,2013-02-10 19:54:00,
2013-02-10 14:59:00,30.2,23.9,28.20,South,182,0.0,0.0,77,0.00,CLR,OVC,0.00,WeatherDisplay:10.37,2013-02-10 19:59:00,
2013-02-10 15:04:00,30.2,23.5,28.17,SSE,159,0.0,0.0,76,0.00,CLR,OVC,0.00,WeatherDisplay:10.37,2013-02-10 20:04:00,
2013-02-10 15:09:00,30.2,23.2,28.17,SE,128,0.0,0.0,75,0.00,CLR,OVC,0.00,WeatherDisplay:10.37,2013-02-10 20:09:00,
2013-02-10 15:14:00,30.0,22.4,28.17,East,100,0.0,0.0,73,0.00,CLR,OVC,0.00,WeatherDisplay:10.37,2013-02-10 20:14:00,
2013-02-10 15:19:00,30.0,22.1,28.17,East,87,0.0,0.0,72,0.00,CLR,OVC,0.00,WeatherDisplay:10.37,2013-02-10 20:19:00,
2013-02-10 15:24:00,30.0,21.8,28.17,ESE,103,0.0,0.0,71,0.00,CLR,OVC,0.00,WeatherDisplay:10.37,2013-02-10 20:24:00,
2013-02-10 15:29:00,30.0,21.4,28.17,East,99,0.0,0.0,70,0.00,CLR,OVC,0.00,WeatherDisplay:10.37,2013-02-10 20:29:00,
2013-02-10 15:34:00,30.0,21.1,28.14,ESE,102,0.0,0.0,69,0.00,CLR,OVC,0.00,WeatherDisplay:10.37,2013-02-10 20:34:00,
2013-02-10 15:39:00,29.7,20.0,28.14,East,94,0.0,0.0,67,0.00,CLR,OVC,0.00,WeatherDisplay:10.37,2013-02-10 20:39:00,
2013-02-10 15:44:00,29.7,20.4,28.14,ENE,72,0.0,0.0,68,0.00,CLR,OVC,0.00,WeatherDisplay:10.37,2013-02-10 20:44:00,
2013-02-10 15:49:00,29.7,20.0,28.14,East,91,0.0,0.0,67,0.00,CLR,OVC,0.00,WeatherDisplay:10.37,2013-02-10 20:49:00,
2013-02-10 15:54:00,29.5,19.9,28.14,East,94,0.0,0.0,67,0.00,CLR,OVC,0.00,WeatherDisplay:10.37,2013-02-10 20:54:00,
2013-02-10 15:59:00,29.3,19.7,28.14,ENE,62,0.0,0.0,67,0.00,CLR,OVC,0.00,WeatherDisplay:10.37,2013-02-10 20:59:00,
2013-02-10 16:04:00,29.3,19.7,28.11,East,82,0.0,0.0,67,0.00,CLR,OVC,0.00,WeatherDisplay:10.37,2013-02-10 21:04:00,
2013-02-10 16:09:00,29.3,19.3,28.11,ESE,105,0.0,0.0,66,0.00,CLR,OVC,0.00,WeatherDisplay:10.37,2013-02-10 21:09:00,
2013-02-10 16:14:00,28.9,18.3,28.11,East,80,0.0,0.0,64,0.00,CLR,OVC,0.00,WeatherDisplay:10.37,2013-02-10 21:14:00,
2013-02-10 16:19:00,29.1,18.8,28.11,ENE,64,0.0,0.0,65,0.00,CLR,OVC,0.00,WeatherDisplay:10.37,2013-02-10 21:19:00,
2013-02-10 16:24:00,29.3,19.3,28.11,NE,44,0.0,0.0,66,0.00,CLR,OVC,0.00,WeatherDisplay:10.37,2013-02-10 21:24:00,
2013-02-10 16:29:00,29.3,19.3,28.11,ESE,120,0.0,0.0,66,0.00,CLR,OVC,0.00,WeatherDisplay:10.37,2013-02-10 21:29:00,
2013-02-10 16:34:00,29.3,19.0,28.08,SE,124,0.0,0.0,65,0.00,CLR,OVC,0.00,WeatherDisplay:10.37,2013-02-10 21:34:00,
2013-02-10 16:39:00,29.1,18.5,28.08,ESE,122,0.0,0.0,64,0.00,CLR,OVC,0.00,WeatherDisplay:10.37,2013-02-10 21:39:00,
2013-02-10 16:44:00,28.8,17.4,28.08,East,86,0.0,0.0,62,0.00,CLR,OVC,0.00,WeatherDisplay:10.37,2013-02-10 21:44:00,
2013-02-10 16:49:00,28.6,17.6,28.08,East,87,0.0,0.0,63,0.00,CLR,OVC,0.00,WeatherDisplay:10.37,2013-02-10 21:49:00,
2013-02-10 16:54:00,28.6,17.2,28.08,ESE,107,0.0,0.0,62,0.00,CLR,OVC,0.00,WeatherDisplay:10.37,2013-02-10 21:54:00,
2013-02-10 16:59:00,28.4,17.4,28.08,NNE,29,0.0,0.0,63,0.00,CLR,OVC,0.00,WeatherDisplay:10.37,2013-02-10 21:59:00,
2013-02-10 17:04:00,28.2,17.2,28.05,East,80,0.0,0.0,63,0.00,CLR,OVC,0.00,WeatherDisplay:10.37,2013-02-10 22:04:00,
2013-02-10 17:09:00,28.2,17.2,28.05,SE,129,0.0,0.0,63,0.00,CLR,OVC,0.00,WeatherDisplay:10.37,2013-02-10 22:09:00,
2013-02-10 17:14:00,28.2,17.6,28.05,ESE,119,0.0,0.0,64,0.00,CLR,OVC,0.00,WeatherDisplay:10.37,2013-02-10 22:14:00,
2013-02-10 17:19:00,28.4,18.1,28.05,East,90,0.0,0.0,65,0.00,CLR,OVC,0.00,WeatherDisplay:10.37,2013-02-10 22:19:00,
2013-02-10 17:24:00,28.6,19.0,28.05,ESE,121,0.0,0.0,67,0.00,CLR,OVC,0.00,WeatherDisplay:10.37,2013-02-10 22:24:00,
2013-02-10 17:29:00,28.6,19.0,28.05,East,99,0.0,0.0,67,0.00,CLR,OVC,0.00,WeatherDisplay:10.37,2013-02-10 22:29:00,
2013-02-10 17:34:00,28.6,19.0,28.02,ENE,68,0.0,0.0,67,0.00,CLR,OVC,0.00,WeatherDisplay:10.37,2013-02-10 22:34:00,
2013-02-10 17:39:00,28.8,19.9,28.02,ESE,118,0.0,0.0,69,0.00,CLR,OVC,0.00,WeatherDisplay:10.37,2013-02-10 22:39:00,
2013-02-10 17:44:00,28.9,20.4,28.02,ENE,66,0.0,0.0,70,0.00,CLR,OVC,0.00,WeatherDisplay:10.37,2013-02-10 22:44:00,
2013-02-10 17:49:00,28.8,20.2,28.02,East,92,0.0,0.0,70,0.00,CLR,OVC,0.00,WeatherDisplay:10.37,2013-02-10 22:49:00,
2013-02-10 17:54:00,29.3,21.4,28.02,ENE,74,0.0,0.0,72,0.00,CLR,OVC,0.00,WeatherDisplay:10.37,2013-02-10 22:54:00,
2013-02-10 17:59:00,29.1,21.5,28.02,SE,133,0.0,0.0,73,0.00,CLR,OVC,0.00,WeatherDisplay:10.37,2013-02-10 22:59:00,
2013-02-10 18:04:00,28.9,21.4,27.99,East,92,0.0,0.0,73,0.00,CLR,OVC,0.00,WeatherDisplay:10.37,2013-02-10 23:04:00,
2013-02-10 18:09:00,28.9,21.7,27.99,NE,55,0.0,0.0,74,0.00,CLR,OVC,0.00,WeatherDisplay:10.37,2013-02-10 23:09:00,
2013-02-10 18:14:00,29.3,22.4,27.99,East,87,0.0,0.0,75,0.00,CLR,OVC,0.00,WeatherDisplay:10.37,2013-02-10 23:14:00,
2013-02-10 18:19:00,29.5,22.8,27.99,South,173,0.0,0.0,76,0.00,CLR,OVC,0.00,WeatherDisplay:10.37,2013-02-10 23:19:00,
2013-02-10 18:24:00,29.7,23.3,27.99,SSE,168,0.0,0.0,77,0.00,CLR,OVC,0.00,WeatherDisplay:10.37,2013-02-10 23:24:00,
2013-02-10 18:29:00,29.8,23.5,27.99,SSE,158,0.0,0.0,77,0.00,CLR,OVC,0.00,WeatherDisplay:10.37,2013-02-10 23:29:00,
2013-02-10 18:34:00,29.8,23.5,27.99,SE,138,0.0,0.0,77,0.00,CLR,OVC,0.00,WeatherDisplay:10.37,2013-02-10 23:34:00,
2013-02-10 18:39:00,30.0,24.0,27.99,SSE,160,0.0,0.0,78,0.00,CLR,OVC,0.00,WeatherDisplay:10.37,2013-02-10 23:39:00,
2013-02-10 18:44:00,30.2,24.2,27.99,East,99,0.0,0.0,78,0.00,CLR,OVC,0.00,WeatherDisplay:10.37,2013-02-10 23:44:00,
2013-02-10 18:49:00,30.2,24.2,27.99,SE,133,0.0,0.0,78,0.00,CLR,OVC,0.00,WeatherDisplay:10.37,2013-02-10 23:49:00,
2013-02-10 18:54:00,30.2,24.2,27.99,South,175,0.0,0.0,78,0.00,CLR,OVC,0.00,WeatherDisplay:10.37,2013-02-10 23:54:00,
2013-02-10 18:59:00,30.2,24.5,27.99,SE,138,0.0,0.0,79,0.00,CLR,OVC,0.00,WeatherDisplay:10.37,2013-02-10 23:59:00,
2013-02-10 19:04:00,30.4,24.6,27.99,ESE,116,0.0,0.0,79,0.00,CLR,OVC,0.00,WeatherDisplay:10.37,2013-02-11 00:04:00,
2013-02-10 19:09:00,30.6,24.8,27.99,SSE,168,0.0,0.0,79,0.00,CLR,OVC,0.00,WeatherDisplay:10.37,2013-02-11 00:09:00,
2013-02-10 19:14:00,30.7,25.3,27.99,ESE,105,0.0,0.0,80,0.00,CLR,OVC,0.00,WeatherDisplay:10.37,2013-02-11 00:14:00,
2013-02-10 19:19:00,30.9,25.5,27.97,SE,126,0.0,0.0,80,0.00,CLR,OVC,0.00,WeatherDisplay:10.37,2013-02-11 00:19:00,
2013-02-10 19:24:00,30.9,25.8,27.97,ESE,109,0.0,0.0,81,0.00,CLR,OVC,0.00,WeatherDisplay:10.37,2013-02-11 00:24:00,
2013-02-10 19:29:00,31.1,26.0,27.97,SE,136,0.0,0.0,81,0.00,CLR,OVC,0.00,WeatherDisplay:10.37,2013-02-11 00:29:00,
2013-02-10 19:34:00,31.3,26.1,27.97,SSE,163,0.0,0.0,81,0.00,CLR,OVC,0.00,WeatherDisplay:10.37,2013-02-11 00:34:00,
2013-02-10 19:39:00,31.3,26.4,27.97,ESE,109,0.0,0.0,82,0.00,CLR,OVC,0.00,WeatherDisplay:10.37,2013-02-11 00:39:00,
2013-02-10 19:44:00,31.3,26.4,27.97,SE,135,0.0,0.0,82,0.00,CLR,OVC,0.00,WeatherDisplay:10.37,2013-02-11 00:44:00,
2013-02-10 19:49:00,31.5,26.6,27.97,SSE,147,0.0,0.0,82,0.00,CLR,OVC,0.00,WeatherDisplay:10.37,2013-02-11 00:49:00,
2013-02-10 19:54:00,31.5,26.9,27.97,SE,141,0.0,0.0,83,0.00,CLR,OVC,0.00,WeatherDisplay:10.37,2013-02-11 00:54:00,
2013-02-10 19:59:00,31.6,26.8,27.97,ESE,103,0.0,0.0,82,0.00,CLR,OVC,0.00,WeatherDisplay:10.37,2013-02-11 00:59:00,
2013-02-10 20:04:00,31.6,26.8,27.93,SE,146,0.0,0.0,82,0.00,CLR,OVC,0.00,WeatherDisplay:10.37,2013-02-11 01:04:00,
2013-02-10 20:09:00,31.6,26.8,27.93,ESE,119,0.0,0.0,82,0.00,CLR,OVC,0.00,WeatherDisplay:10.37,2013-02-11 01:09:00,
2013-02-10 20:14:00,31.8,27.2,27.93,SSE,162,0.0,0.0,83,0.00,CLR,OVC,0.00,WeatherDisplay:10.37,2013-02-11 01:14:00,
2013-02-10 20:19:00,32.0,27.4,27.93,South,180,0.0,0.0,83,0.00,CLR,OVC,0.00,WeatherDisplay:10.37,2013-02-11 01:19:00,
2013-02-10 20:24:00,32.0,27.4,27.93,SSE,149,0.0,0.0,83,0.00,CLR,OVC,0.00,WeatherDisplay:10.37,2013-02-11 01:24:00,
2013-02-10 20:29:00,32.2,27.6,27.93,SE,145,0.0,0.0,83,0.00,CLR,OVC,0.00,WeatherDisplay:10.37,2013-02-11 01:29:00,
2013-02-10 20:34:00,32.2,27.6,27.93,South,174,0.0,0.0,83,0.00,CLR,OVC,0.00,WeatherDisplay:10.37,2013-02-11 01:34:00,
2013-02-10 20:39:00,32.4,27.8,27.93,SSE,154,0.0,0.0,83,0.00,CLR,OVC,0.00,WeatherDisplay:10.37,2013-02-11 01:39:00,
2013-02-10 20:44:00,32.4,27.8,27.93,SSE,157,0.0,0.0,83,0.00,CLR,OVC,0.00,WeatherDisplay:10.37,2013-02-11 01:44:00,
2013-02-10 20:49:00,32.5,28.0,27.93,ESE,121,0.0,0.0,83,0.00,CLR,OVC,0.00,WeatherDisplay:10.37,2013-02-11 01:49:00,
2013-02-10 20:54:00,32.5,28.0,27.93,SSE,150,0.0,0.0,83,0.00,CLR,OVC,0.00,WeatherDisplay:10.37,2013-02-11 01:54:00,
2013-02-10 20:59:00,32.5,28.2,27.93,East,91,0.0,0.0,84,0.00,CLR,OVC,0.00,WeatherDisplay:10.37,2013-02-11 01:59:00,
2013-02-10 21:04:00,32.7,28.4,27.93,South,176,0.0,0.0,84,0.00,CLR,OVC,0.00,WeatherDisplay:10.37,2013-02-11 02:04:00,
2013-02-10 21:09:00,32.7,28.4,27.93,SSE,164,0.0,0.0,84,0.00,CLR,OVC,0.00,WeatherDisplay:10.37,2013-02-11 02:09:00,
2013-02-10 21:14:00,32.7,28.4,27.93,ESE,123,0.0,0.0,84,0.00,CLR,OVC,0.00,WeatherDisplay:10.37,2013-02-11 02:14:00,
2013-02-10 21:19:00,32.7,28.7,27.91,SE,145,0.0,0.0,85,0.00,CLR,OVC,0.00,WeatherDisplay:10.37,2013-02-11 02:19:00,
2013-02-10 21:24:00,32.7,28.7,27.91,South,181,0.0,0.0,85,0.00,CLR,OVC,0.00,WeatherDisplay:10.37,2013-02-11 02:24:00,
2013-02-10 21:29:00,32.9,28.9,27.91,SSE,153,0.0,0.0,85,0.00,CLR,OVC,0.00,WeatherDisplay:10.37,2013-02-11 02:29:00,
2013-02-10 21:34:00,32.9,29.2,27.91,SE,140,0.0,0.0,86,0.00,CLR,OVC,0.00,WeatherDisplay:10.37,2013-02-11 02:34:00,
2013-02-10 21:39:00,32.9,29.2,27.91,SSE,152,0.0,0.0,86,0.00,CLR,OVC,0.00,WeatherDisplay:10.37,2013-02-11 02:39:00,
2013-02-10 21:44:00,32.9,29.2,27.91,SSE,151,0.0,0.0,86,0.00,CLR,OVC,0.00,WeatherDisplay:10.37,2013-02-11 02:44:00,
2013-02-10 21:49:00,32.9,29.2,27.91,SSE,149,0.0,0.0,86,0.00,CLR,OVC,0.00,WeatherDisplay:10.37,2013-02-11 02:49:00,
2013-02-10 21:54:00,32.7,28.7,27.91,SE,138,0.0,0.0,85,0.00,CLR,OVC,0.00,WeatherDisplay:10.37,2013-02-11 02:54:00,
2013-02-10 21:59:00,32.7,28.7,27.91,ESE,106,0.0,0.0,85,0.00,CLR,OVC,0.00,WeatherDisplay:10.37,2013-02-11 02:59:00,
2013-02-10 22:04:00,32.7,28.7,27.88,SSE,155,0.0,0.0,85,0.00,CLR,OVC,0.00,WeatherDisplay:10.37,2013-02-11 03:04:00,
2013-02-10 22:09:00,32.7,28.7,27.88,ESE,119,0.0,0.0,85,0.00,CLR,OVC,0.00,WeatherDisplay:10.37,2013-02-11 03:09:00,
2013-02-10 22:14:00,32.7,28.4,27.88,SE,146,0.0,0.0,84,0.00,CLR,OVC,0.00,WeatherDisplay:10.37,2013-02-11 03:14:00,
2013-02-10 22:19:00,32.7,28.4,27.88,SSE,167,0.0,0.0,84,0.00,CLR,OVC,0.00,WeatherDisplay:10.37,2013-02-11 03:19:00,
2013-02-10 22:24:00,32.7,28.4,27.88,SSE,147,0.0,0.0,84,0.00,CLR,OVC,0.00,WeatherDisplay:10.37,2013-02-11 03:24:00,
2013-02-10 22:29:00,32.7,28.4,27.88,SE,130,0.0,0.0,84,0.00,CLR,OVC,0.00,WeatherDisplay:10.37,2013-02-11 03:29:00,
2013-02-10 22:34:00,32.7,28.4,27.88,SE,128,0.0,0.0,84,0.00,CLR,OVC,0.00,WeatherDisplay:10.37,2013-02-11 03:34:00,
2013-02-10 22:39:00,32.7,28.4,27.88,East,80,0.0,0.0,84,0.00,CLR,OVC,0.00,WeatherDisplay:10.37,2013-02-11 03:39:00,
2013-02-10 22:44:00,32.9,28.6,27.88,SE,145,0.0,0.0,84,0.00,CLR,OVC,0.00,WeatherDisplay:10.37,2013-02-11 03:44:00,
2013-02-10 22:49:00,32.9,28.6,27.85,SE,138,0.0,0.0,84,0.00,CLR,OVC,0.00,WeatherDisplay:10.37,2013-02-11 03:49:00,
2013-02-10 22:54:00,33.1,29.1,27.85,SSE,157,0.0,0.0,85,0.00,CLR,OVC,0.00,WeatherDisplay:10.37,2013-02-11 03:54:00,
2013-02-10 22:59:00,33.1,29.1,27.85,SSE,157,0.0,0.0,85,0.00,CLR,OVC,0.00,WeatherDisplay:10.37,2013-02-11 03:59:00,
2013-02-10 23:04:00,33.1,29.1,27.85,South,169,0.0,0.0,85,0.00,CLR,OVC,0.00,WeatherDisplay:10.37,2013-02-11 04:04:00,
2013-02-10 23:09:00,33.1,29.3,27.85,ESE,114,0.0,0.0,86,0.00,CLR,OVC,0.00,WeatherDisplay:10.37,2013-02-11 04:09:00,
2013-02-10 23:14:00,33.3,29.5,27.85,SSE,166,0.0,0.0,86,0.00,CLR,OVC,0.00,WeatherDisplay:10.37,2013-02-11 04:14:00,
2013-02-10 23:19:00,33.3,29.5,27.85,SSE,160,0.0,0.0,86,0.00,CLR,OVC,0.00,WeatherDisplay:10.37,2013-02-11 04:19:00,
2013-02-10 23:24:00,33.4,30.0,27.85,SSE,156,0.0,0.0,87,0.00,CLR,OVC,0.00,WeatherDisplay:10.37,2013-02-11 04:24:00,
2013-02-10 23:29:00,33.4,30.0,27.85,SE,146,0.0,0.0,87,0.00,CLR,OVC,0.00,WeatherDisplay:10.37,2013-02-11 04:29:00,
2013-02-10 23:34:00,33.4,30.3,27.85,South,182,0.0,0.0,88,0.00,CLR,OVC,0.00,WeatherDisplay:10.37,2013-02-11 04:34:00,
2013-02-10 23:39:00,33.4,30.3,27.85,SE,144,0.0,0.0,88,0.00,CLR,OVC,0.00,WeatherDisplay:10.37,2013-02-11 04:39:00,
2013-02-10 23:44:00,33.4,30.3,27.85,SSE,154,0.0,0.0,88,0.00,CLR,OVC,0.00,WeatherDisplay:10.37,2013-02-11 04:44:00,
2013-02-10 23:49:00,33.6,30.7,27.82,SSE,157,0.0,0.0,89,0.00,CLR,OVC,0.00,WeatherDisplay:10.37,2013-02-11 04:49:00,
2013-02-10 23:54:00,33.8,30.9,27.82,SSE,155,0.0,0.0,89,0.00,CLR,OVC,0.00,WeatherDisplay:10.37,2013-02-11 04:54:00,
2013-02-10 23:59:00,33.8,30.9,27.82,SE,130,0.0,0.0,89,0.00,CLR,OVC,0.00,WeatherDisplay:10.37,2013-02-11 04:59:00,